SL-12 R/B(2)

基本信息
目录编号:
26246
目录名称:
SL-12 R/B(2)
国际标识:
2000-019D
轨道中心:
EARTH
物体状态:
在轨
发射日期:
2000-04-17 UTC
国别:
俄罗斯(独联体) (CIS)
轨道信息
数据来源: 国际轨道数据
星历时间: 2026-07-14T04:00:41+0800
半长轴: 42365.63km
偏心率: 0.0013646
轨道倾角: 14.738°
近地点辐角: 317.358°
升交点赤经: 1.689°
平近点角: 210.336°
近地点: 35929.68km
远地点: 36045.306km
周期: 1446.373分钟
每日圈数: 0.995594
详细信息
发射场:
TTMTR
轨道高度:
HEO
数据来源:
AOE Integration Group
参考系:
TEME
时间系统:
UTC
历元类型:
SGP4
2D轨道图
3D轨道图
轨道高度分析图
轨道倾角分析图
轨道综合分析图
查看轨道综合分析图